Home   Weather   Jørpeland   Past weeks

Flag for Norway Past Weather in Jørpeland, Norway — Yesterday and Last 2 Weeks

Now
72 °F

Passing clouds.


Feels Like: 77 °F
Forecast: 52 / 56 °F
Wind: 28 mph from Southeast

Location: Stavanger / Sola

Current Time: Sep 25, 2016 at 4:04:26 PM

Latest Report: Sep 25, 2016 at 3:20 PM


Visibility: N/A

Pressure: 29.86 "Hg

Humidity: 50%

Dew Point: 52 °F

Location of JørpelandLocation

Past Weather in Jørpeland — Graph

°F

Jørpeland Temperature Yesterday

Maximum temperature yesterday: 63 °F (at 10:50 AM)
Minimum temperature yesterday: 52 °F (at 12:20 AM)
Average temperature yesterday: 60 °F

High & Low Weather Summary for the Past Weeks

 TemperatureHumidityPressure
High79 °F (Sep 13, 2:50 PM)100% (Sep 10, 10:50 PM)30.24 "Hg (Sep 10, 10:50 PM)
Low52 °F (Sep 23, 9:50 PM)48% (Sep 15, 12:50 PM)29.68 "Hg (Sep 11, 2:50 AM)
Average63 °F76%30.06 "Hg
* Reported Sep 10 2:20 PM — Sep 25 2:50 PM, Jørpeland, Weather by CustomWeather, © 2016

Note: Actual official high and low records may vary slightly from our data, if they occured in-between our weather recording intervals... More about our weather records

Advertising

Jørpeland Weather History for the Previous 24 Hours

Scroll right to see more
 ConditionsComfort  
Time TempWeatherWind HumidityBarometerVisibility
2:50 PM
Sun, Sep 25
72 °FPassing clouds.24 mph50%29.86 "HgN/A
2:20 PM72 °FSunny.23 mph50%29.86 "Hg10 mi
1:50 PM72 °FSunny.24 mph50%29.86 "Hg10 mi
1:20 PM70 °FSunny.23 mph60%29.89 "Hg10 mi
12:50 PM70 °FSunny.23 mph60%29.89 "Hg10 mi
12:20 PM70 °FSunny.20 mph60%29.89 "Hg10 mi
11:50 AM68 °FSunny.21 mph69%29.89 "Hg10 mi
11:20 AM68 °FPassing clouds.17 mph64%29.89 "HgN/A
10:50 AM68 °FScattered clouds.18 mph64%29.89 "HgN/A
10:20 AM66 °FScattered clouds.21 mph68%29.89 "HgN/A
9:50 AM66 °FScattered clouds.20 mph68%29.89 "HgN/A
9:20 AM64 °FPartly sunny.17 mph73%29.89 "HgN/A
8:50 AM64 °FScattered clouds.18 mph78%29.89 "HgN/A
8:20 AM64 °FScattered clouds.20 mph78%29.89 "HgN/A
7:50 AM64 °FPassing clouds.18 mph78%29.89 "HgN/A
7:20 AM64 °FPassing clouds.16 mph78%29.89 "HgN/A
6:50 AM64 °FPassing clouds.17 mph78%29.89 "HgN/A
6:20 AM64 °FPassing clouds.18 mph78%29.89 "HgN/A
5:50 AM64 °FPassing clouds.20 mph78%29.89 "HgN/A
4:50 AM63 °FPassing clouds.17 mph83%29.92 "HgN/A
3:50 AM63 °FPassing clouds.20 mph77%29.92 "HgN/A
2:50 AM63 °FPassing clouds.17 mph77%29.92 "HgN/A
1:50 AM63 °FPassing clouds.18 mph77%29.95 "HgN/A
12:50 AM61 °FPassing clouds.16 mph83%29.95 "HgN/A
12:20 AM61 °FPassing clouds.17 mph83%29.95 "HgN/A
11:50 PM
Sat, Sep 24
61 °FPassing clouds.15 mph83%29.95 "HgN/A
11:20 PM63 °FPartly cloudy.15 mph83%29.98 "HgN/A
10:50 PM63 °FPassing clouds.16 mph83%29.98 "HgN/A
10:20 PM63 °FPartly cloudy.16 mph83%29.98 "HgN/A
9:50 PM63 °FPassing clouds.20 mph83%29.98 "HgN/A
9:20 PM63 °FPassing clouds.23 mph77%29.95 "HgN/A
8:50 PM63 °FPassing clouds.17 mph77%29.95 "HgN/A
8:20 PM61 °FPassing clouds.18 mph83%29.95 "HgN/A
7:50 PM61 °FPassing clouds.20 mph83%29.95 "HgN/A
7:20 PM61 °FPartly sunny.17 mph83%29.95 "HgN/A
6:50 PM61 °FPartly sunny.18 mph83%29.95 "HgN/A
6:20 PM63 °FBroken clouds.21 mph73%29.95 "HgN/A
5:50 PM63 °FBroken clouds.17 mph77%29.95 "HgN/A
5:20 PM63 °FBroken clouds.18 mph73%29.95 "HgN/A
4:50 PM63 °FBroken clouds.21 mph73%29.95 "HgN/A
4:20 PM63 °FPartly sunny.18 mph77%29.98 "HgN/A
Weather by CustomWeather, © 2016

See weather overviewHow to use our weather pages